Worcester, MA

2:56 PM EDT on May 23, 2018 (GMT -0400)
Worcester Regional

Weather History for KORH - November, 2010

Change the Weather History Date:

Wednesday, November 17, 2010

  Actual Average Record
Temperature  
Mean Temperature 51 °F 40 °F  
Max Temperature 59 °F 47 °F 74 °F (1928)
Min Temperature 43 °F 33 °F 8 °F (1924)
Degree Days  
Heating Degree Days 14 25  
Month to date heating degree days 366 382  
Since 1 July heating degree days 946 1043  
Cooling Degree Days 0 0  
Month to date cooling degree days 0 0  
Year to date cooling degree days 730 471  
Growing Degree Days 1 (Base 50)    
Moisture  
Dew Point 46 °F    
Average Humidity 77    
Maximum Humidity 100    
Minimum Humidity 54    
Precipitation  
Precipitation 1.34 in 0.15 in 1.50 in (1930)
Month to date precipitation 3.95 2.40  
Year to date precipitation 45.94 42.37  
Snow  
Snow 0.00 in 0.00 in 1.90 in (1992)
Month to date snowfall T 0.8  
Since 1 July snowfall T 1.0  
Since 1 September snowfall T 1.0  
Snow Depth 0.00 in    
Sea Level Pressure  
Sea Level Pressure 29.62 in    
Wind  
Wind Speed 17 mph (SSW)    
Max Wind Speed 40 mph    
Max Gust Speed 59 mph    
Visibility 6 miles    
Events Fog , Rain    
T = Trace of Precipitation, MM = Missing Value Source: NWS Daily Summary

Daily Weather History Graph

Daily Weather History Graph

Search for Another Location

Airport or City:

Astronomy

Nov. 17, 2010 Rise Set
Actual Time 6:40 AM EST 4:24 PM EST
Civil Twilight 6:10 AM EST 4:54 PM EST
Nautical Twilight 5:36 AM EST 5:28 PM EST
Astronomical Twilight 5:02 AM EST 6:01 PM EST
Moon 1:58 PM EST (11/17) 2:32 AM EST (11/17)
Length of Visible Light 10h 44m
Length of Day
9h 43m
Waxing Gibbous, 85% of the Moon is Illuminated
Nov 17
Waxing Gibbous
Nov 21
Full
Nov 28
Last Quarter
Dec 5
New
Dec 13
First Quarter

Hourly Weather History & Observations

Time (EST) Temp. Windchill Dew Point Humidity Pressure Visibility Wind Dir Wind Speed Gust Speed Precip Events Conditions
12:01 AM 46.4 °F 41.9 °F 46.4 °F 100% 29.90 in 0.5 mi East 9.2 mph - 0.01 in Fog , Rain Light Rain
12:32 AM 46.4 °F 41.5 °F 46.4 °F 100% 29.88 in 1.8 mi East 10.4 mph 17.3 mph 0.01 in Rain Light Rain
12:54 AM 46.0 °F 41.0 °F 46.0 °F 100% 29.88 in 1.8 mi East 10.4 mph - 0.02 in Rain Light Rain
1:07 AM 46.4 °F 41.5 °F 46.4 °F 100% 29.85 in 3.0 mi East 10.4 mph 17.3 mph 0.01 in Rain Light Rain
1:29 AM 46.4 °F 41.9 °F 46.4 °F 100% 29.82 in 3.0 mi East 9.2 mph - 0.01 in Rain Light Rain
1:36 AM 46.4 °F 41.1 °F 46.4 °F 100% 29.81 in 2.5 mi ENE 11.5 mph 18.4 mph 0.02 in Rain Rain
1:43 AM 46.4 °F 41.9 °F 46.4 °F 100% 29.82 in 4.0 mi East 9.2 mph 18.4 mph N/A Rain Light Rain
1:54 AM 46.0 °F 41.0 °F 46.0 °F 100% 29.83 in 2.0 mi East 10.4 mph - 0.05 in Rain Heavy Rain
2:03 AM 46.4 °F 41.5 °F 46.4 °F 100% 29.80 in 1.0 mi East 10.4 mph 17.3 mph 0.03 in Rain Rain
2:19 AM 46.4 °F 41.9 °F 46.4 °F 100% 29.78 in 0.5 mi East 9.2 mph - 0.04 in Fog , Rain Light Rain
2:38 AM 46.4 °F 41.5 °F 46.4 °F 100% 29.77 in 1.0 mi East 10.4 mph 19.6 mph 0.09 in Rain Heavy Rain
2:52 AM 46.4 °F 41.1 °F 46.4 °F 100% 29.74 in 0.5 mi East 11.5 mph - 0.14 in Fog , Rain Heavy Rain
2:54 AM 46.0 °F 41.9 °F 46.0 °F 100% 29.75 in 0.5 mi East 8.1 mph 18.4 mph 0.15 in Fog , Rain Heavy Rain
3:49 AM 46.4 °F 41.5 °F 46.4 °F 100% 29.67 in 0.2 mi ENE 10.4 mph - 0.29 in Fog , Rain Heavy Rain
3:54 AM 46.0 °F 41.4 °F 46.0 °F 100% 29.69 in 0.2 mi ENE 9.2 mph 17.3 mph 0.33 in Fog , Rain Heavy Rain
4:13 AM 46.4 °F 41.5 °F 46.4 °F 100% 29.66 in 0.5 mi ENE 10.4 mph - 0.11 in Fog , Rain Heavy Rain
4:54 AM 46.9 °F - 46.9 °F 100% 29.65 in 0.8 mi ENE 6.9 mph - 0.36 in Rain Heavy Rain
6:49 AM 50.0 °F - 50.0 °F 100% 29.53 in 0.2 mi Variable 5.8 mph - 0.03 in Fog , Rain Light Rain
6:50 AM 50.0 °F - 50.0 °F 100% 29.54 in 0.2 mi ESE 5.8 mph - 0.03 in Fog , Rain Light Rain
7:07 AM 51.8 °F - 51.8 °F 100% 29.53 in 0.2 mi South 5.8 mph - 0.02 in Fog , Rain Rain
7:19 AM 51.8 °F - 51.8 °F 100% 29.52 in 0.5 mi South 8.1 mph - 0.07 in Rain Rain
7:28 AM 53.6 °F - 53.6 °F 100% 29.53 in 2.0 mi WSW 13.8 mph 21.9 mph 0.12 in Rain Rain
7:37 AM 50.0 °F - 50.0 °F 100% 29.53 in 6.0 mi West 16.1 mph 25.3 mph 0.13 in Rain Rain
7:42 AM 50.0 °F - 48.2 °F 94% 29.52 in 8.0 mi WNW 15.0 mph 21.9 mph 0.14 in Rain Light Rain
7:54 AM 50.0 °F - 48.9 °F 96% 29.54 in 10.0 mi West 8.1 mph 18.4 mph 0.14 in Rain Light Rain
8:20 AM 51.8 °F - 50.0 °F 94% 29.51 in 10.0 mi SW 5.8 mph - 0.00 in Rain Light Rain
8:46 AM 51.8 °F - 50.0 °F 94% 29.50 in 10.0 mi WSW 5.8 mph - 0.02 in   Overcast
8:54 AM 51.1 °F - 50.0 °F 96% 29.52 in 10.0 mi SW 5.8 mph - 0.02 in   Overcast
9:29 AM 53.6 °F - 53.6 °F 100% 29.48 in 10.0 mi SSW 8.1 mph - N/A   Mostly Cloudy
9:54 AM 57.0 °F - 55.0 °F 93% 29.47 in 10.0 mi SSW 10.4 mph 16.1 mph N/A   Overcast
9:58 AM 57.2 °F - 55.4 °F 94% 29.47 in 10.0 mi SSW 16.1 mph 19.6 mph N/A   Mostly Cloudy
10:07 AM 57.2 °F - 53.6 °F 88% 29.46 in 10.0 mi SSW 13.8 mph - N/A   Mostly Cloudy
10:41 AM 57.2 °F - 53.6 °F 88% 29.46 in 10.0 mi SSW 18.4 mph 24.2 mph N/A   Mostly Cloudy
10:54 AM 57.0 °F - 52.0 °F 83% 29.47 in 10.0 mi SW 17.3 mph 23.0 mph N/A   Mostly Cloudy
11:54 AM 57.0 °F - 48.0 °F 72% 29.43 in 10.0 mi SW 17.3 mph 26.5 mph N/A   Overcast
12:54 PM 54.0 °F - 48.0 °F 80% 29.44 in 6.0 mi WSW 23.0 mph 32.2 mph 0.00 in Rain Light Rain
1:54 PM 54.0 °F - 42.1 °F 64% 29.44 in 10.0 mi WSW 20.7 mph 34.5 mph 0.00 in   Scattered Clouds
2:54 PM 53.1 °F - 37.9 °F 57% 29.46 in 10.0 mi WSW 25.3 mph 34.5 mph N/A   Mostly Cloudy
3:54 PM 52.0 °F - 37.9 °F 59% 29.49 in 10.0 mi WSW 21.9 mph 34.5 mph N/A   Overcast
4:54 PM 51.1 °F - 37.0 °F 59% 29.52 in 10.0 mi WSW 23.0 mph 29.9 mph N/A   Overcast
5:54 PM 50.0 °F - 37.0 °F 61% 29.55 in 10.0 mi West 18.4 mph 29.9 mph 0.00 in   Mostly Cloudy
6:54 PM 48.9 °F - 36.0 °F 61% 29.58 in 10.0 mi West 21.9 mph 34.5 mph N/A   Overcast
7:54 PM 48.0 °F - 33.1 °F 56% 29.59 in 10.0 mi West 27.6 mph 36.8 mph 0.00 in   Mostly Cloudy
8:54 PM 46.9 °F - 34.0 °F 61% 29.61 in 10.0 mi West 21.9 mph 34.5 mph N/A   Overcast
9:54 PM 46.0 °F 36.7 °F 32.0 °F 58% 29.62 in 10.0 mi West 29.9 mph 49.5 mph N/A   Scattered Clouds
10:54 PM 45.0 °F 35.8 °F 30.9 °F 58% 29.65 in 10.0 mi West 26.5 mph 46.0 mph 0.00 in   Overcast
11:54 PM 43.0 °F 32.7 °F 30.9 °F 62% 29.69 in 10.0 mi West 28.8 mph 41.4 mph N/A   Mostly Cloudy